Meteo pe oră la

Astăzi, 19 Ianuarie, Marţi

Timp Temperatura Precipitaţii Vânt Presiune Umiditate
00:00 +11°C° 0 mm 1 m/s 560 mmHg 85%
01:00 +10°C° 0 mm 1 m/s 560 mmHg 86%
02:00 +10°C° 0 mm 1 m/s 559 mmHg 86%
03:00 +10°C° 0 mm 1 m/s 559 mmHg 86%
04:00 +9°C° 0 mm 1 m/s 559 mmHg 86%
05:00 +8°C° 0 mm 0 m/s 559 mmHg 86%
06:00 +10°C° 0 mm 0 m/s 560 mmHg 80%
07:00 +11°C° 0 mm 0 m/s 561 mmHg 74%
08:00 +13°C° 0 mm 1 m/s 562 mmHg 68%
09:00 +15°C° 0 mm 1 m/s 563 mmHg 59%
10:00 +18°C° 0 mm 1 m/s 564 mmHg 50%
11:00 +18°C° 0 mm 2 m/s 565 mmHg 42%
12:00 +19°C° 0 mm 2 m/s 565 mmHg 40%
13:00 +19°C° 0 mm 3 m/s 564 mmHg 39%
14:00 +20°C° 0 mm 3 m/s 564 mmHg 38%
15:00 +19°C° 0 mm 3 m/s 563 mmHg 45%
16:00 +17°C° 0 mm 2 m/s 563 mmHg 52%
17:00 +16°C° 0 mm 2 m/s 563 mmHg 59%
18:00 +15°C° 0 mm 2 m/s 562 mmHg 64%
19:00 +14°C° 0 mm 2 m/s 562 mmHg 68%
20:00 +12°C° 0 mm 2 m/s 562 mmHg 73%
21:00 +12°C° 0 mm 2 m/s 562 mmHg 75%
22:00 +10°C° 0 mm 2 m/s 562 mmHg 77%
23:00 +9°C° 0 mm 2 m/s 562 mmHg 79%

Mâine, 20 Ianuarie, Miercuri

Timp Temperatura Precipitaţii Vânt Presiune Umiditate
00:00 +9°C° 0 mm 2 m/s 562 mmHg 83%
01:00 +9°C° 0 mm 2 m/s 561 mmHg 86%
02:00 +8°C° 0 mm 2 m/s 561 mmHg 90%
03:00 +8°C° 0 mm 2 m/s 561 mmHg 90%
04:00 +8°C° 0 mm 2 m/s 561 mmHg 90%
05:00 +9°C° 0 mm 1 m/s 561 mmHg 90%
06:00 +10°C° 0 mm 1 m/s 562 mmHg 87%
07:00 +9°C° 0 mm 2 m/s 562 mmHg 84%
08:00 +10°C° 0 mm 2 m/s 563 mmHg 81%
09:00 +12°C° 0 mm 3 m/s 564 mmHg 74%
10:00 +14°C° 0 mm 3 m/s 564 mmHg 66%
11:00 +15°C° 0 mm 4 m/s 565 mmHg 59%
12:00 +17°C° 0 mm 4 m/s 565 mmHg 59%
13:00 +17°C° 0 mm 4 m/s 564 mmHg 59%
14:00 +17°C° 0 mm 4 m/s 564 mmHg 58%
15:00 +16°C° 0.1 mm 3 m/s 563 mmHg 63%
16:00 +14°C° 0.1 mm 3 m/s 563 mmHg 67%
17:00 +15°C° 0.1 mm 2 m/s 563 mmHg 71%
18:00 +14°C° 0.1 mm 2 m/s 563 mmHg 77%
19:00 +13°C° 0.1 mm 2 m/s 563 mmHg 82%
20:00 +12°C° 0.1 mm 2 m/s 563 mmHg 88%
21:00 +12°C° 0 mm 2 m/s 563 mmHg 89%
22:00 +11°C° 0 mm 1 m/s 563 mmHg 90%
23:00 +11°C° 0 mm 1 m/s 563 mmHg 91%

Poimâine, 21 Ianuarie, Joi

Timp Temperatura Precipitaţii Vânt Presiune Umiditate
00:00 +11°C° 0 mm 1 m/s 562 mmHg 91%
01:00 +10°C° 0 mm 1 m/s 562 mmHg 92%
02:00 +10°C° 0 mm 1 m/s 562 mmHg 92%
03:00 +8°C° 0 mm 0 m/s 561 mmHg 93%
04:00 +8°C° 0 mm 0 m/s 561 mmHg 93%
05:00 +8°C° 0 mm 0 m/s 561 mmHg 93%
06:00 +9°C° 0 mm 0 m/s 562 mmHg 87%
07:00 +10°C° 0 mm 0 m/s 563 mmHg 81%
08:00 +11°C° 0 mm 0 m/s 563 mmHg 75%
09:00 +14°C° 0 mm 1 m/s 564 mmHg 66%
10:00 +16°C° 0 mm 1 m/s 565 mmHg 57%
11:00 +19°C° 0 mm 1 m/s 565 mmHg 47%
12:00 +20°C° 0 mm 1 m/s 565 mmHg 42%
13:00 +20°C° 0 mm 2 m/s 564 mmHg 37%
14:00 +20°C° 0 mm 2 m/s 564 mmHg 32%
15:00 +19°C° 0 mm 2 m/s 563 mmHg 37%
16:00 +18°C° 0 mm 2 m/s 563 mmHg 42%
17:00 +17°C° 0 mm 2 m/s 562 mmHg 47%
18:00 +16°C° 0 mm 2 m/s 562 mmHg 53%
19:00 +14°C° 0 mm 2 m/s 561 mmHg 60%
20:00 +13°C° 0 mm 2 m/s 561 mmHg 66%
21:00 +13°C° 0 mm 1 m/s 561 mmHg 67%
22:00 +12°C° 0 mm 1 m/s 561 mmHg 67%
23:00 +12°C° 0 mm 1 m/s 560 mmHg 67%

22 Ianuarie, Vineri

Timp Temperatura Precipitaţii Vânt Presiune Umiditate
00:00 +11°C° 0 mm 1 m/s 560 mmHg 68%
01:00 +10°C° 0 mm 0 m/s 560 mmHg 68%
02:00 +10°C° 0 mm 0 m/s 559 mmHg 68%
03:00 +11°C° 0 mm 1 m/s 559 mmHg 68%
04:00 +10°C° 0 mm 1 m/s 559 mmHg 69%
05:00 +10°C° 0 mm 1 m/s 559 mmHg 69%
06:00 +11°C° 0 mm 1 m/s 560 mmHg 65%
07:00 +13°C° 0 mm 1 m/s 561 mmHg 61%
08:00 +14°C° 0 mm 1 m/s 562 mmHg 57%
09:00 +16°C° 0 mm 1 m/s 563 mmHg 51%
10:00 +19°C° 0 mm 1 m/s 563 mmHg 45%
11:00 +20°C° 0 mm 1 m/s 564 mmHg 39%
12:00 +21°C° 0 mm 1 m/s 564 mmHg 36%
13:00 +21°C° 0 mm 1 m/s 563 mmHg 34%
14:00 +22°C° 0 mm 1 m/s 563 mmHg 31%
15:00 +20°C° 0 mm 2 m/s 562 mmHg 38%
16:00 +18°C° 0 mm 2 m/s 562 mmHg 45%
17:00 +17°C° 0 mm 2 m/s 561 mmHg 52%
18:00 +16°C° 0 mm 2 m/s 561 mmHg 59%
19:00 +14°C° 0 mm 2 m/s 561 mmHg 66%
20:00 +13°C° 0 mm 1 m/s 561 mmHg 73%
21:00 +13°C° 0 mm 1 m/s 560 mmHg 73%
22:00 +12°C° 0 mm 1 m/s 560 mmHg 74%
23:00 +12°C° 0 mm 1 m/s 560 mmHg 75%

23 Ianuarie, Sâmbătă

Timp Temperatura Precipitaţii Vânt Presiune Umiditate
00:00 +12°C° 0 mm 1 m/s 560 mmHg 75%
01:00 +11°C° 0 mm 1 m/s 560 mmHg 75%
02:00 +11°C° 0 mm 1 m/s 559 mmHg 75%
03:00 +11°C° 0 mm 1 m/s 559 mmHg 75%
04:00 +11°C° 0 mm 1 m/s 559 mmHg 75%
05:00 +11°C° 0 mm 1 m/s 560 mmHg 74%
06:00 +12°C° 0 mm 1 m/s 560 mmHg 69%
07:00 +13°C° 0 mm 1 m/s 561 mmHg 64%
08:00 +14°C° 0 mm 1 m/s 562 mmHg 59%
09:00 +16°C° 0 mm 1 m/s 563 mmHg 52%
10:00 +18°C° 0 mm 1 m/s 564 mmHg 45%
11:00 +20°C° 0 mm 1 m/s 564 mmHg 38%
12:00 +19°C° 0 mm 2 m/s 564 mmHg 36%
13:00 +20°C° 0 mm 2 m/s 563 mmHg 34%
14:00 +20°C° 0 mm 3 m/s 563 mmHg 32%
15:00 +19°C° 0 mm 2 m/s 563 mmHg 37%
16:00 +18°C° 0 mm 2 m/s 562 mmHg 43%
17:00 +17°C° 0 mm 2 m/s 562 mmHg 48%
18:00 +16°C° 0 mm 1 m/s 562 mmHg 52%
19:00 +15°C° 0 mm 1 m/s 561 mmHg 57%
20:00 +14°C° 0 mm 1 m/s 561 mmHg 61%
21:00 +13°C° 0 mm 1 m/s 561 mmHg 62%
22:00 +13°C° 0 mm 1 m/s 561 mmHg 62%
23:00 +12°C° 0 mm 0 m/s 560 mmHg 62%

24 Ianuarie, Duminică

Timp Temperatura Precipitaţii Vânt Presiune Umiditate
00:00 +12°C° 0 mm 1 m/s 560 mmHg 62%
01:00 +12°C° 0 mm 1 m/s 560 mmHg 62%
02:00 +11°C° 0 mm 1 m/s 559 mmHg 63%
03:00 +11°C° 0 mm 1 m/s 559 mmHg 62%
04:00 +11°C° 0 mm 1 m/s 559 mmHg 62%
05:00 +10°C° 0 mm 1 m/s 559 mmHg 62%
06:00 +12°C° 0 mm 1 m/s 560 mmHg 57%
07:00 +12°C° 0 mm 0 m/s 561 mmHg 53%
08:00 +13°C° 0 mm 0 m/s 562 mmHg 49%
09:00 +16°C° 0 mm 1 m/s 563 mmHg 43%
10:00 +19°C° 0 mm 1 m/s 563 mmHg 38%
11:00 +21°C° 0 mm 1 m/s 564 mmHg 32%
12:00 +21°C° 0 mm 1 m/s 563 mmHg 30%
13:00 +21°C° 0 mm 2 m/s 563 mmHg 27%
14:00 +21°C° 0 mm 2 m/s 563 mmHg 25%
15:00 +20°C° 0 mm 2 m/s 562 mmHg 30%
16:00 +19°C° 0 mm 3 m/s 561 mmHg 35%
17:00 +17°C° 0 mm 3 m/s 561 mmHg 40%
18:00 +16°C° 0 mm 2 m/s 560 mmHg 46%
19:00 +15°C° 0 mm 2 m/s 560 mmHg 52%
20:00 +13°C° 0 mm 1 m/s 560 mmHg 58%
21:00 +13°C° 0 mm 1 m/s 559 mmHg 58%
22:00 +13°C° 0 mm 1 m/s 559 mmHg 59%
23:00 +12°C° 0 mm 1 m/s 559 mmHg 59%
Arată mai mult

Formular de consimțământ

Meteoprog și furnizorii noștri de servicii pot stoca și accesa date personale, precum cookies, identificatori de dispozitiv sau alte tehnologii similare pe dispozitivul dumneavoastră și procesa astfel de date pentru a personaliza conținutul și reclamele, dar și pentru a oferi caracteristici de social media și pentru a analiza traficul.

  • Stocarea și/sau accesarea informațiilor pe dispozitivul dumneavoastră

    Cookies, identificatori de dispozitiv sau alte informații pot fi stocate sau accesate pe dispozitiv în scopurile indicate mai sus.

  • Reclame și conținut personalizat, evaluarea reclamelor și a conținutului, informații despre audiențe și dezvoltarea produselor

    Reclamele și conținutul pot fi personalizate pe baza unui profil. Pot fi adăugate date suplimentare pentru a personaliza mai bine reclamele și conținutul. Performanța reclamelor și conținutului poate fi măsurată. Pot fi obținute informații despre utilizatorii care au văzut reclamele și conținutul. Aceste date pot fi utilizate pentru a dezvolta sau îmbunătăți experiența utilizatorilor, sistemele și software-ul.

Dând clic pe ‘Sunt de acord’, permiteți utilizarea cookie-urilor menționate, a identificatorilor de dispozitiv, balizelor web sau altor tehnologii similare. Setările pot fi modificate din browser-ul dispozitivului dumneavoastră.

În anumite scopuri, interesele legitime pot prima asupra consimțământului. Puteți citi mai multe informații în acest sens în Politica privind Confidențialitatea Datelor și Cookie.